Skip Page Navigation
NASA JPL Caltech
NASA Logo - Jet Propulsion Laboratory + View the NASA Portal
+ Center for Near-Earth Object Studies
JPL Home Earth Solar System Stars & Galaxies Technology
JPL Solar System Dynamics
BODIES ORBITS EPHEMERIDES TOOLS PHYSICAL DATA DISCOVERY FAQ SITE MAP
IMPORTANT: The SSD Announcement email list is now available. Major changes are coming in the near future, including possible hostname and/or URL changes. To be notified of such changes, subscribe to this email list.

Please visit this page for more details.


JPL Small-Body Database Browser
Search: [ help ]  
39707 (1996 TN35)
Classification: Main-belt Asteroid          SPK-ID: 2039707
Ephemeris | Orbit Diagram | Orbital Elements | Mission Design | Physical Parameters | Discovery Circumstances | Close-Approach Data ]

[ show orbit diagram ]
Orbital Elements at Epoch 2459000.5 (2020-May-31.0) TDB
Reference: JPL 20 (heliocentric ecliptic J2000)
 Element Value Uncertainty (1-sigma)   Units 
e .05486862662184563 4.286e-08  
a 2.351848104263471 9.6379e-09 au
q 2.222805428759343 1.0252e-07 au
i 4.208271301161268 3.8232e-06 deg
node 98.30569121335144 5.7741e-05 deg
peri 56.25682002024599 6.8773e-05 deg
M 70.52147042341188 3.6816e-05 deg
tp 2458742.433763213415
(2019-Sep-15.93376321)
0.00013456 TDB
period 1317.383836232777
3.61
8.098e-06
2.217e-08
d
yr
n .2732688758573696 1.6798e-09 deg/d
Q 2.480890779767599 1.0167e-08 au
  Orbit Determination Parameters
   # obs. used (total)      919  
   data-arc span      8155 days (22.33 yr)  
   first obs. used      1996-10-11  
   last obs. used      2019-02-08  
   planetary ephem.      DE431  
   SB-pert. ephem.      SB431-N16  
   condition code      0  
   norm. resid. RMS      .57441  
   source      ORB  
   producer      Otto Matic  
   solution date      2019-Jul-13 02:08:06  

Additional Information
 Earth MOID = 1.23612 au 
 Jupiter MOID = 2.49912 au 
 T_jup = 3.551 
[ show covariance matrix ]

Ephemeris | Orbit Diagram | Orbital Elements | Mission Design | Physical Parameters | Discovery Circumstances | Close-Approach Data ]

Physical Parameter Table
Parameter Symbol Value Units Sigma Reference Notes
absolute magnitude H 15.5   n/a MPO351109  
diameter diameter 3.835 km 0.233 urn:nasa:pds:neowise_diameters_albedos::2.0[mainbelt] (http://adsabs.harvard.edu/abs/2011ApJ...741...68M)  
geometric albedo albedo 0.100   0.022 urn:nasa:pds:neowise_diameters_albedos::2.0[mainbelt] (http://adsabs.harvard.edu/abs/2011ApJ...741...68M)  

39707 (1996 TN35)          Discovered 1996-Oct-11 by Spacewatch at Kitt Peak
Reference: 20020526/Numbers.arcLast Updated: 2004-04-19

[ hide close-approach data ]
Close-Approach Data   ...sorted by Date/Time (TDB)
Date/Time (TDB) Time Uncertainty
(days_HH:MM)
Body Nominal Distance (au) Minimum Distance (au) Maximum Distance (au) V-relative (km/s) V-infinity (km/s) JD (TDB) Time Uncertainty (minutes) Semi-major axis (km) Semi-minor axis (km) range-LOV angle (deg) N-sigma BP Orbit Ref. Reference Modified
2179-Jul-28 00:42 00:04 Thisb 0.0144618631840325 0.014450862061143 0.0144729112536285 4.63370300363964 4.63370290189248 2517131.528874577 3.65917933955564 1413.63961953774 41.0866522610983 -67.1809499369341 48515.8963418437 T 20 CATAB v2.0e-lin.ifort 2019-Jul-13 02:08:10 2019-Jul-13 02:08

Alternate Designations
 1996 TN35 = 1998 ES10 
Ephemeris | Orbit Diagram | Orbital Elements | Mission Design | Physical Parameters | Discovery Circumstances | Close-Approach Data ]
ABOUT SSD CREDITS/AWARDS PRIVACY/COPYRIGHT GLOSSARY LINKS
FirstGov 2020-Feb-19 14:27 UT
(server date/time)  
NASA Home Page
Site Manager:   Ryan S. Park
Webmaster  Alan B. Chamberlin